Volver al catálogo

SL-8 DEB

ActivoLEO
NORAD 19831·DEBRIS·🇷🇺 Russia

Lanzado Jan 26, 1989 desde Plesetsk Cosmodrome

Loading…

Próximos Pases (próximas 24 horas)

TLE

ActualizadoSource: Space-Track

Época: Sep 14, 2026, 10:14 UTC

1 19831U 89005C   26257.42644963  .00001253  00000-0  24574-3 0  9990
2 19831  74.0662   1.9427 0011389 351.2290 125.4277 14.63799529985641

Sigue SL-8 DEB en tiempo real con AllMySat

Download on the App Store